Find Starlink 38216

NORAD ID: 100545 Int'l Des: 2026-200 Owner: SPXS Country: US Constellation: starlink operational

Current View

Loading 3D Globe...

About Starlink 38216

Starlink 38216 (NORAD 100545) is a starlink constellation satellite launched Sep 2, 2026 by SPXS of US. with a mass of 575.00 kg.

Upcoming Passes

Passes for default location (London). Set your location on the main map for personalized predictions.

Altitude History

Loading altitude history...

Two-Line Element Set

1 A0545U 26200M 26263.97672901 .00168651 00000-0 99016-3 0 9999
2 A0545 70.0000 133.8214 0003820 271.9889 88.0873 15.77622810 2962
Epoch: Sep 20, 2026 • Age: 4 hours

Current Status

Altitude 344.5 km
Apogee / Perigee N/A
Velocity 7.70 km/s
Sub-Earth Point -24.63°S, 65.26°E
Launch Date Sep 2, 2026
Age 18 days
Type internet

Technical Details

Classification Payload
Mass 575.00 kg
Dry Mass 530.00 kg
Length 0.30 m
Span 29.00 m
Shape ? Box + pan
Manufacturer SPXS
Bus Type Starlink V2MO
Phase Status In Orbit
Owner/State SPXS/US

Most Searched